| time (UTC) | temp F | wind direction | speed knots | gust knots | rain 1hr in | rain 24hr in | rain mn in | humidity % | barometer mb |
| 20260508013018 | 56 | 242 | 0.0 | 0.0 | 0.00 | 0.01 | 0.00 | 91 | 1014.7 |
| 20260508012034 | 56 | 242 | 0.0 | 0.0 | 0.00 | 0.01 | 0.00 | 91 | 1014.7 |
| 20260508011030 | 55 | 242 | 0.0 | 0.0 | 0.00 | 0.01 | 0.00 | 90 | 1014.8 |
| 20260508010047 | 55 | 242 | 0.0 | 0.0 | 0.00 | 0.01 | 0.00 | 90 | 1015.0 |
| 20260508005043 | 56 | 241 | 0.0 | 0.0 | 0.00 | 0.01 | 0.00 | 90 | 1015.0 |
| 20260508004018 | 56 | 241 | 0.0 | 0.0 | 0.00 | 0.01 | 0.00 | 90 | 1015.1 |
| 20260508003034 | 55 | 241 | 0.0 | 0.0 | 0.00 | 0.01 | 0.00 | 90 | 1015.2 |
| 20260508002031 | 56 | 241 | 0.0 | 0.0 | 0.00 | 0.01 | 0.00 | 89 | 1015.1 |
| 20260508001027 | 56 | 241 | 0.0 | 0.0 | 0.00 | 0.01 | 0.00 | 89 | 1015.3 |
| 20260508000023 | 56 | 241 | 0.0 | 0.0 | 0.00 | 0.01 | 0.00 | 89 | 1015.4 |
| 20260507235019 | 56 | 241 | 0.0 | 0.0 | 0.00 | 0.01 | 0.00 | 89 | 1015.3 |
| 20260507234035 | 56 | 241 | 0.0 | 0.0 | 0.00 | 0.01 | 0.00 | 89 | 1015.4 |
| 20260507233031 | 56 | 241 | 0.0 | 0.0 | 0.00 | 0.01 | 0.00 | 89 | 1015.5 |
| 20260507232027 | 56 | 241 | 0.0 | 0.0 | 0.00 | 0.01 | 0.00 | 88 | 1015.7 |
| 20260507231044 | 56 | 241 | 0.0 | 0.0 | 0.00 | 0.01 | 0.00 | 88 | 1015.7 |
| 20260507230020 | 56 | 241 | 0.0 | 0.0 | 0.00 | 0.01 | 0.00 | 88 | 1015.8 |
| 20260507225054 | 56 | 241 | 0.0 | 0.0 | 0.00 | 0.01 | 0.00 | 87 | 1015.8 |
| 20260507224024 | 57 | 241 | 0.0 | 0.0 | 0.00 | 0.01 | 0.00 | 87 | 1016.0 |
| 20260507223020 | 57 | 241 | 0.0 | 0.0 | 0.00 | 0.01 | 0.00 | 87 | 1016.0 |
| 20260507222016 | 57 | 233 | 0.0 | 0.0 | 0.00 | 0.01 | 0.00 | 87 | 1015.8 |
| 20260507221032 | 57 | 125 | 0.0 | 0.0 | 0.00 | 0.01 | 0.00 | 87 | 1015.9 |
| 20260507220028 | 57 | 253 | 0.0 | 0.0 | 0.00 | 0.01 | 0.00 | 86 | 1015.9 |
| 20260507215024 | 58 | 254 | 0.0 | 0.0 | 0.00 | 0.01 | 0.00 | 86 | 1015.7 |
| 20260507214039 | 58 | 231 | 0.0 | 0.0 | 0.00 | 0.01 | 0.00 | 86 | 1015.7 |
| 20260507213034 | 58 | 230 | 0.0 | 0.0 | 0.00 | 0.01 | 0.00 | 85 | 1015.6 |
| 20260507212030 | 58 | 230 | 0.0 | 0.0 | 0.00 | 0.01 | 0.00 | 85 | 1015.7 |
| 20260507211027 | 59 | 235 | 0.0 | 0.0 | 0.00 | 0.01 | 0.00 | 84 | 1015.6 |
| 20260507210022 | 59 | 241 | 0.0 | 0.0 | 0.00 | 0.01 | 0.01 | 84 | 1015.5 |
| 20260507205018 | 59 | 283 | 0.0 | 0.0 | 0.00 | 0.01 | 0.01 | 83 | 1015.5 |
| 20260507204034 | 60 | 99 | 0.0 | 0.0 | 0.00 | 0.01 | 0.01 | 83 | 1015.5 |
| 20260507203030 | 60 | 81 | 0.0 | 0.0 | 0.00 | 0.01 | 0.01 | 83 | 1015.5 |
| 20260507202026 | 60 | 261 | 0.0 | 0.0 | 0.00 | 0.01 | 0.01 | 82 | 1015.6 |
| 20260507201022 | 60 | 348 | 0.0 | 0.0 | 0.00 | 0.01 | 0.01 | 83 | 1015.5 |
| 20260507200018 | 60 | 45 | 0.0 | 0.9 | 0.00 | 0.01 | 0.01 | 83 | 1015.5 |
| 20260507195054 | 60 | 284 | 0.9 | 1.7 | 0.00 | 0.01 | 0.01 | 83 | 1015.4 |
| 20260507194050 | 60 | 221 | 0.0 | 0.0 | 0.00 | 0.01 | 0.01 | 83 | 1015.4 |
| 20260507193026 | 61 | 219 | 0.0 | 0.0 | 0.00 | 0.01 | 0.01 | 82 | 1015.5 |
| 20260507192022 | 61 | 219 | 0.0 | 0.0 | 0.00 | 0.01 | 0.01 | 81 | 1015.7 |
| 20260507191018 | 61 | 219 | 0.0 | 0.0 | 0.00 | 0.01 | 0.01 | 81 | 1015.7 |
| 20260507190034 | 62 | 204 | 0.0 | 0.0 | 0.00 | 0.01 | 0.01 | 80 | 1015.5 |
| 20260507185030 | 62 | 252 | 0.0 | 1.7 | 0.00 | 0.01 | 0.01 | 80 | 1015.6 |
| 20260507184025 | 63 | 232 | 0.0 | 0.0 | 0.00 | 0.01 | 0.01 | 79 | 1015.2 |
| 20260507183022 | 64 | 219 | 0.0 | 0.0 | 0.00 | 0.01 | 0.01 | 76 | 1015.0 |
| 20260507182018 | 64 | 91 | 0.9 | 2.6 | 0.00 | 0.01 | 0.01 | 75 | 1014.8 |
| 20260507181034 | 64 | 100 | 0.0 | 0.9 | 0.00 | 0.01 | 0.01 | 75 | 1014.8 |
| 20260507180029 | 65 | 75 | 0.0 | 0.0 | 0.00 | 0.01 | 0.01 | 74 | 1014.9 |
| 20260507175025 | 65 | 63 | 0.0 | 0.0 | 0.00 | 0.01 | 0.01 | 75 | 1014.8 |
| 20260507174021 | 65 | 63 | 0.0 | 0.0 | 0.00 | 0.01 | 0.01 | 75 | 1015.0 |
| 20260507173017 | 66 | 66 | 0.0 | 0.9 | 0.00 | 0.01 | 0.01 | 75 | 1014.9 |
| 20260507172113 | 66 | 43 | 0.0 | 0.0 | 0.00 | 0.01 | 0.01 | 74 | 1014.9 |
| 20260507171029 | 66 | 259 | 0.9 | 1.7 | 0.00 | 0.01 | 0.01 | 75 | 1015.0 |
| 20260507170025 | 66 | 301 | 0.9 | 1.7 | 0.00 | 0.01 | 0.01 | 74 | 1015.0 |
| 20260507165021 | 66 | 93 | 0.0 | 0.9 | 0.00 | 0.01 | 0.01 | 76 | 1014.8 |
| 20260507164017 | 67 | 101 | 0.0 | 1.7 | 0.00 | 0.01 | 0.01 | 78 | 1014.9 |
| 20260507163033 | 67 | 256 | 0.0 | 1.7 | 0.00 | 0.01 | 0.01 | 76 | 1015.1 |
| 20260507162049 | 68 | 275 | 0.0 | 0.0 | 0.00 | 0.01 | 0.01 | 74 | 1015.2 |
| 20260507161025 | 68 | 273 | 0.9 | 1.7 | 0.00 | 0.01 | 0.01 | 70 | 1015.3 |
| 20260507160021 | 68 | 239 | 0.0 | 0.9 | 0.00 | 0.01 | 0.01 | 69 | 1015.2 |
| 20260507155017 | 69 | 289 | 0.9 | 1.7 | 0.00 | 0.01 | 0.01 | 67 | 1015.2 |
| 20260507154054 | 69 | 224 | 0.0 | 0.0 | 0.00 | 0.01 | 0.01 | 70 | 1015.1 |
| 20260507153029 | 69 | 233 | 0.0 | 0.9 | 0.00 | 0.01 | 0.01 | 67 | 1015.0 |
| 20260507152024 | 69 | 290 | 0.9 | 2.6 | 0.00 | 0.01 | 0.01 | 66 | 1015.0 |
| 20260507151020 | 69 | 293 | 0.0 | 0.0 | 0.00 | 0.01 | 0.01 | 67 | 1015.1 |
| 20260507150116 | 68 | 291 | 0.0 | 1.7 | 0.00 | 0.01 | 0.01 | 69 | 1015.2 |
| 20260507145032 | 67 | 249 | 0.9 | 3.5 | 0.00 | 0.01 | 0.01 | 72 | 1015.2 |
| 20260507144027 | 67 | 285 | 0.9 | 2.6 | 0.00 | 0.01 | 0.01 | 74 | 1015.3 |
| 20260507143022 | 67 | 311 | 1.7 | 2.6 | 0.00 | 0.01 | 0.01 | 73 | 1015.4 |
| 20260507142059 | 67 | 290 | 0.9 | 1.7 | 0.00 | 0.01 | 0.01 | 71 | 1015.2 |
| 20260507141034 | 67 | 291 | 0.9 | 1.7 | 0.00 | 0.01 | 0.01 | 69 | 1015.2 |
| 20260507140050 | 67 | 64 | 0.9 | 1.7 | 0.00 | 0.01 | 0.01 | 71 | 1015.1 |
| 20260507135046 | 66 | 59 | 0.9 | 2.6 | 0.00 | 0.01 | 0.01 | 72 | 1015.2 |
| 20260507134022 | 67 | 33 | 1.7 | 3.5 | 0.00 | 0.01 | 0.01 | 72 | 1015.3 |
| 20260507133019 | 66 | 36 | 2.6 | 5.2 | 0.00 | 0.01 | 0.01 | 74 | 1015.3 |
| 20260507132054 | 66 | 78 | 1.7 | 3.5 | 0.00 | 0.01 | 0.01 | 72 | 1015.6 |
| 20260507131030 | 65 | 268 | 1.7 | 3.5 | 0.00 | 0.01 | 0.01 | 70 | 1015.8 |
| 20260507130026 | 65 | 298 | 2.6 | 5.2 | 0.00 | 0.01 | 0.01 | 71 | 1016.0 |
| 20260507125022 | 65 | 288 | 2.6 | 5.2 | 0.00 | 0.01 | 0.01 | 72 | 1016.2 |
| 20260507124018 | 65 | 304 | 0.9 | 1.7 | 0.01 | 0.01 | 0.01 | 72 | 1016.4 |
| 20260507123034 | 65 | 267 | 0.9 | 2.6 | 0.01 | 0.01 | 0.01 | 74 | 1016.6 |
| 20260507122029 | 64 | 253 | 0.9 | 3.5 | 0.01 | 0.01 | 0.01 | 75 | 1016.7 |
| 20260507121024 | 64 | 255 | 0.9 | 3.5 | 0.01 | 0.01 | 0.01 | 78 | 1016.7 |
| 20260507120032 | 65 | 41 | 0.0 | 1.7 | 0.01 | 0.01 | 0.01 | 79 | 1016.7 |
| 20260507115035 | 65 | 241 | 0.0 | 0.9 | 0.01 | 0.01 | 0.01 | 74 | 1016.7 |
| 20260507114031 | 66 | 277 | 0.9 | 3.5 | 0.00 | 0.00 | 0.00 | 72 | 1016.7 |
| 20260507113059 | 66 | 270 | 0.0 | 1.7 | 0.00 | 0.00 | 0.00 | 71 | 1016.8 |
| 20260507112023 | 67 | 332 | 0.9 | 2.6 | 0.00 | 0.00 | 0.00 | 70 | 1016.8 |
| 20260507111018 | 65 | 315 | 0.0 | 0.9 | 0.00 | 0.00 | 0.00 | 70 | 1016.9 |
| 20260507110033 | 66 | 347 | 0.9 | 1.7 | 0.00 | 0.00 | 0.00 | 74 | 1016.9 |
| 20260507105027 | 66 | 37 | 0.9 | 1.7 | 0.00 | 0.00 | 0.00 | 74 | 1016.8 |
| 20260507104035 | 66 | 40 | 0.0 | 0.9 | 0.00 | 0.00 | 0.00 | 73 | 1016.7 |
| 20260507103036 | 65 | 15 | 0.0 | 1.7 | 0.00 | 0.00 | 0.00 | 73 | 1016.5 |
| 20260507102021 | 65 | 62 | 0.9 | 0.9 | 0.00 | 0.00 | 0.00 | 72 | 1016.6 |
| 20260507101520 | 65 | 46 | 0.0 | 1.7 | 0.00 | 0.00 | 0.00 | 72 | 1016.6 |
| 20260507100534 | 64 | 52 | 1.7 | 2.6 | 0.00 | 0.00 | 0.00 | 71 | 1016.4 |
| 20260507095530 | 64 | 39 | 0.0 | 1.7 | 0.00 | 0.00 | 0.00 | 70 | 1016.4 |
| 20260507094526 | 64 | 52 | 1.7 | 2.6 | 0.00 | 0.00 | 0.00 | 71 | 1016.3 |
| 20260507093521 | 65 | 59 | 0.9 | 2.6 | 0.00 | 0.00 | 0.00 | 72 | 1016.3 |
| 20260507092516 | 65 | 42 | 1.7 | 2.6 | 0.00 | 0.00 | 0.00 | 70 | 1016.3 |
| 20260507091552 | 66 | 45 | 1.7 | 5.2 | 0.00 | 0.00 | 0.00 | 65 | 1016.0 |
| 20260507090527 | 65 | 50 | 2.6 | 7.0 | 0.00 | 0.00 | 0.00 | 65 | 1016.0 |
| 20260507085542 | 65 | 48 | 3.5 | 7.0 | 0.00 | 0.00 | 0.00 | 68 | 1016.0 |
| 20260507084538 | 65 | 45 | 1.7 | 5.2 | 0.00 | 0.00 | 0.00 | 67 | 1015.9 |
| 20260507083534 | 65 | 41 | 4.3 | 7.0 | 0.00 | 0.00 | 0.00 | 70 | 1015.7 |
| 20260507082531 | 64 | 34 | 7.0 | 9.6 | 0.00 | 0.00 | 0.00 | 71 | 1015.7 |
| 20260507081545 | 64 | 43 | 4.3 | 7.8 | 0.00 | 0.00 | 0.00 | 70 | 1015.6 |
| 20260507080520 | 64 | 46 | 6.1 | 9.6 | 0.00 | 0.00 | 0.00 | 72 | 1015.6 |
| 20260507075536 | 65 | 48 | 6.1 | 8.7 | 0.00 | 0.00 | 0.00 | 70 | 1015.5 |
| 20260507074551 | 64 | 47 | 4.3 | 7.8 | 0.00 | 0.00 | 0.00 | 73 | 1015.6 |
| 20260507073526 | 64 | 38 | 6.1 | 9.6 | 0.00 | 0.00 | 0.00 | 73 | 1015.6 |
| 20260507072521 | 65 | 55 | 4.3 | 7.8 | 0.00 | 0.00 | 0.00 | 72 | 1015.5 |
| 20260507071535 | 63 | 65 | 2.6 | 5.2 | 0.00 | 0.00 | 0.00 | 74 | 1015.4 |
| 20260507071018 | 63 | 38 | 5.2 | 7.8 | 0.00 | 0.00 | 0.00 | 74 | 1015.5 |
| 20260507070026 | 62 | 41 | 5.2 | 7.8 | 0.00 | 0.00 | 0.00 | 77 | 1015.5 |
| 20260507065021 | 62 | 50 | 3.5 | 7.0 | 0.00 | 0.00 | 0.00 | 77 | 1015.7 |
| 20260507064017 | 62 | 43 | 1.7 | 3.5 | 0.00 | 0.00 | 0.00 | 75 | 1015.7 |
| 20260507063033 | 62 | 35 | 0.9 | 5.2 | 0.00 | 0.00 | 0.00 | 75 | 1015.5 |
| 20260507062029 | 62 | 26 | 0.9 | 3.5 | 0.00 | 0.00 | 0.00 | 75 | 1015.5 |
| 20260507061024 | 62 | 46 | 0.9 | 2.6 | 0.00 | 0.00 | 0.00 | 76 | 1015.4 |
| 20260507060020 | 62 | 46 | 1.7 | 3.5 | 0.00 | 0.00 | 0.00 | 77 | 1015.5 |
| 20260507055016 | 62 | 42 | 1.7 | 2.6 | 0.00 | 0.00 | 0.00 | 76 | 1015.4 |
| 20260507054032 | 62 | 21 | 0.0 | 0.9 | 0.00 | 0.00 | 0.00 | 76 | 1015.5 |
| 20260507053048 | 60 | 272 | 0.0 | 0.9 | 0.00 | 0.00 | 0.00 | 79 | 1015.4 |
| 20260507052044 | 61 | 232 | 0.0 | 0.0 | 0.00 | 0.00 | 0.00 | 81 | 1015.4 |
| 20260507051019 | 59 | 230 | 0.0 | 0.0 | 0.00 | 0.00 | 0.00 | 85 | 1015.4 |
| 20260507050056 | 59 | 214 | 0.0 | 0.0 | 0.00 | 0.00 | 0.00 | 89 | 1015.4 |
| 20260507045032 | 56 | 214 | 0.0 | 0.0 | 0.00 | 0.00 | 0.00 | 90 | 1015.3 |
| 20260507044047 | 56 | 214 | 0.0 | 0.0 | 0.00 | 0.00 | 0.00 | 91 | 1015.1 |
| 20260507043023 | 55 | 214 | 0.0 | 0.0 | 0.00 | 0.00 | 0.00 | 91 | 1015.0 |
| 20260507042019 | 55 | 209 | 0.0 | 0.0 | 0.00 | 0.00 | 0.00 | 91 | 1015.1 |
| 20260507041035 | 55 | 209 | 0.0 | 0.0 | 0.00 | 0.00 | 0.00 | 91 | 1015.1 |
| 20260507040030 | 54 | 210 | 0.0 | 0.0 | 0.00 | 0.00 | 0.00 | 92 | 1014.9 |
| 20260507035026 | 53 | 208 | 0.0 | 0.0 | 0.00 | 0.00 | 0.00 | 92 | 1014.8 |
| 20260507034021 | 53 | 208 | 0.0 | 0.0 | 0.00 | 0.00 | 0.00 | 92 | 1014.7 |
| 20260507033017 | 53 | 209 | 0.0 | 0.0 | 0.00 | 0.00 | 0.00 | 92 | 1014.6 |
| 20260507032033 | 53 | 208 | 0.0 | 0.0 | 0.00 | 0.00 | 0.00 | 92 | 1014.4 |
| 20260507031029 | 53 | 242 | 0.0 | 0.0 | 0.00 | 0.00 | 0.00 | 92 | 1014.6 |
| 20260507030025 | 53 | 243 | 0.0 | 0.0 | 0.00 | 0.00 | 0.00 | 92 | 1014.5 |
| 20260507025021 | 53 | 133 | 0.0 | 0.0 | 0.00 | 0.00 | 0.00 | 91 | 1014.3 |
| 20260507024017 | 53 | 133 | 0.0 | 0.0 | 0.00 | 0.00 | 0.00 | 91 | 1014.1 |
| 20260507023033 | 53 | 133 | 0.0 | 0.0 | 0.00 | 0.00 | 0.00 | 91 | 1014.2 |
| 20260507022029 | 53 | 133 | 0.0 | 0.0 | 0.00 | 0.00 | 0.00 | 91 | 1014.1 |
| 20260507021024 | 53 | 133 | 0.0 | 0.0 | 0.00 | 0.00 | 0.00 | 91 | 1014.1 |
| 20260507020020 | 54 | 133 | 0.0 | 0.0 | 0.00 | 0.00 | 0.00 | 91 | 1013.9 |
| 20260507015036 | 54 | 133 | 0.0 | 0.0 | 0.00 | 0.00 | 0.00 | 91 | 1013.9 |
| 20260507014032 | 54 | 133 | 0.0 | 0.0 | 0.00 | 0.00 | 0.00 | 91 | 1013.9 |